Home > Weather > Melhus > Past weeks

Flag for Norway Weather for the Past 2 Weeks in Melhus, Norway

Now
61 °F

Passing clouds.


Feels Like: 61 °F
Forecast: 39 / 61 °F
Wind: 9 mph from South

Location: Trondheim / Vaernes

Current Time: May 5, 2016 at 6:50:11 PM

Latest Report: May 5, 2016 at 6:20 PM


Visibility: N/A

Pressure: 30.09 "Hg

Humidity: 34%

Dew Point: 32 °F

Location of MelhusLocation

Historic Weather in Melhus — Graph

°F

Melhus Temperature Yesterday

Maximum temperature yesterday: 59 °F (at 6:20 PM)
Minimum temperature yesterday: 37 °F (at 5:50 AM)
Average temperature yesterday: 49 °F

High & Low Weather Summary for the Past Weeks

 TemperatureHumidityPressure
High61 °F (May 5, 5:20 PM)100% (Apr 24, 1:20 AM)30.21 "Hg (Apr 24, 1:20 AM)
Low27 °F (Apr 25, 5:20 AM)27% (May 4, 6:20 PM)29.62 "Hg (Apr 29, 7:50 AM)
Average43 °F67%29.94 "Hg
* Reported Apr 20 5:20 PM — May 5 5:20 PM, Melhus, Weather by CustomWeather, © 2016

Note: Actual official high and low records may vary slightly from our data, if they occured in-between our weather recording intervals... More about our weather records

Advertising

Melhus Weather History for the Previous 24 Hours

Scroll right to see more
 ConditionsComfort  
Time TempWeatherWind HumidityBarometerVisibility
5:20 PM
Thu, May 5
61 °FSunny.1 mph31%30.09 "Hg10 mi
4:50 PM59 °FSunny.7 mph36%30.09 "Hg10 mi
4:20 PM57 °FSunny.7 mph44%30.09 "Hg10 mi
3:50 PM57 °FPassing clouds.6 mph44%30.09 "HgN/A
3:20 PM59 °FPassing clouds.3 mph39%30.09 "HgN/A
2:50 PM57 °FSunny.6 mph41%30.12 "Hg10 mi
2:20 PM57 °FSunny.6 mph41%30.12 "Hg10 mi
1:50 PM55 °FSunny.6 mph44%30.12 "Hg10 mi
1:20 PM55 °FSunny.13 mph47%30.12 "Hg10 mi
12:50 PM57 °FSunny.15 mph48%30.12 "Hg10 mi
12:20 PM59 °FSunny.6 mph36%30.12 "Hg10 mi
11:50 AM57 °FSunny.5 mph36%30.12 "Hg10 mi
11:20 AM57 °FPassing clouds.6 mph39%30.12 "HgN/A
10:50 AM57 °FSunny.9 mph39%30.12 "Hg10 mi
10:20 AM55 °FSunny.8 mph41%30.12 "Hg10 mi
9:50 AM55 °FPassing clouds.6 mph44%30.12 "HgN/A
9:20 AM52 °FSunny.7 mph47%30.12 "Hg10 mi
8:50 AM50 °FSunny.7 mph58%30.12 "Hg10 mi
8:20 AM48 °FSunny.6 mph58%30.12 "Hg10 mi
7:50 AM46 °FSunny.5 mph62%30.15 "Hg10 mi
7:20 AM43 °FSunny.6 mph66%30.15 "Hg10 mi
6:50 AM41 °FSunny.7 mph70%30.15 "Hg10 mi
6:20 AM41 °FSunny.6 mph70%30.15 "Hg10 mi
5:50 AM41 °FSunny.5 mph70%30.15 "Hg10 mi
5:20 AM39 °FClear.8 mph75%30.15 "Hg10 mi
4:50 AM41 °FClear.7 mph70%30.15 "Hg10 mi
3:50 AM43 °FClear.6 mph61%30.18 "Hg10 mi
2:50 AM46 °FClear.5 mph53%30.18 "Hg10 mi
12:50 AM46 °FClear.9 mph53%30.18 "HgN/A
11:50 PM
Wed, May 4
46 °FClear.9 mph53%30.18 "HgN/A
11:20 PM46 °FClear.9 mph57%30.18 "Hg10 mi
10:50 PM48 °FClear.9 mph54%30.18 "Hg10 mi
10:20 PM50 °FSunny.12 mph50%30.18 "Hg10 mi
9:50 PM52 °FSunny.9 mph44%30.15 "Hg10 mi
9:20 PM54 °FSunny.10 mph41%30.15 "Hg10 mi
8:50 PM55 °FSunny.10 mph41%30.15 "Hg10 mi
8:20 PM57 °FSunny.8 mph36%30.18 "Hg10 mi
7:50 PM57 °FSunny.12 mph36%30.18 "Hg10 mi
7:20 PM59 °FSunny.10 mph29%30.18 "Hg10 mi
6:50 PM59 °FSunny.3 mph29%30.18 "Hg10 mi
6:20 PM59 °FSunny.3 mph27%30.18 "Hg10 mi
Weather by CustomWeather, © 2016

See weather overviewHow to use our weather pages